Norfolk, NE

4:39 AM CDT on June 28, 2017 (GMT -0500)
Stefan Memorial

Weather History for KOFK - April, 2012

Change the Weather History Date:

Sunday, April 29, 2012

  Actual Average Record
Temperature  
Mean Temperature 48 °F 55 °F  
Max Temperature 54 °F 67 °F 93 °F (1926)
Min Temperature 42 °F 43 °F 25 °F (1958)
Degree Days  
Heating Degree Days 17 11  
Month to date heating degree days 324 462  
Since 1 July heating degree days 5319 6411  
Cooling Degree Days 0 1  
Month to date cooling degree days 20 11  
Year to date cooling degree days 41 11  
Moisture  
Dew Point 44 °F    
Average Humidity 86    
Maximum Humidity 100    
Minimum Humidity 71    
Precipitation  
Precipitation 0.00 in 0.10 in 1.80 in (1895)
Month to date precipitation 3.14 2.55  
Year to date precipitation 5.63 5.67  
Snow  
Snow 0.00 in 0.10 in - ()
Month to date snowfall 0.0 2.6  
Since 1 July snowfall 15.3 30.5  
Snow Depth 0.00 in    
Sea Level Pressure  
Sea Level Pressure 30.06 in    
Wind  
Wind Speed 6 mph (East)    
Max Wind Speed 12 mph    
Max Gust Speed 18 mph    
Visibility 3 miles    
Events Fog    
T = Trace of Precipitation, MM = Missing Value Source: NWS Daily Summary

Daily Weather History Graph

Daily Weather History Graph

Search for Another Location

Airport or City:

Trip Planner

Search our weather history database for the weather conditions in past years. The results will help you decide how hot, cold, wet, or windy it might be!

Date:

Astronomy

Apr. 29, 2012 Rise Set
Actual Time 6:27 AM CDT 8:26 PM CDT
Civil Twilight 5:57 AM CDT 8:57 PM CDT
Nautical Twilight 5:20 AM CDT 9:34 PM CDT
Astronomical Twilight 4:40 AM CDT 10:14 PM CDT
Moon 1:13 PM CDT (4/29) 2:26 AM CDT (4/29)
Length of Visible Light 14h 59m
Length of Day
13h 59m
First Quarter, 53% of the Moon is Illuminated
Apr 29
First Quarter
May 5
Full
May 12
Last Quarter
May 20
New
May 28
First Quarter

Hourly Weather History & Observations

Time (CDT) Temp. Windchill Dew Point Humidity Pressure Visibility Wind Dir Wind Speed Gust Speed Precip Events Conditions
12:17 AM 46.4 °F 40.7 °F 44.6 °F 93% 30.06 in 4.0 mi SE 12.7 mph - N/A   Clear
12:56 AM 46.9 °F - 44.1 °F 90% 30.07 in 4.0 mi SE 9.2 mph - N/A   Clear
1:56 AM 45.0 °F 42.6 °F 43.0 °F 93% 30.07 in 3.0 mi ESE 4.6 mph - N/A   Clear
2:06 AM 44.6 °F 41.4 °F 42.8 °F 93% 30.07 in 2.5 mi ESE 5.8 mph - N/A   Clear
2:38 AM 44.6 °F 40.7 °F 42.8 °F 93% 30.07 in 2.0 mi ESE 6.9 mph - N/A   Scattered Clouds
2:46 AM 44.6 °F 41.4 °F 42.8 °F 93% 30.07 in 2.0 mi ESE 5.8 mph - N/A   Mostly Cloudy
2:56 AM 46.0 °F 42.5 °F 44.1 °F 93% 30.07 in 2.5 mi ESE 6.9 mph - N/A   Overcast
3:38 AM 44.6 °F 43.1 °F 42.8 °F 93% 30.08 in 1.8 mi East 3.5 mph - N/A   Overcast
3:56 AM 45.0 °F - 43.0 °F 93% 30.08 in 1.5 mi Calm Calm - N/A   Overcast
4:07 AM 44.6 °F 43.1 °F 42.8 °F 93% 30.08 in 1.5 mi East 3.5 mph - N/A   Overcast
4:28 AM 44.6 °F 40.7 °F 44.6 °F 100% 30.09 in 0.5 mi ESE 6.9 mph - N/A Fog Fog
4:56 AM 45.0 °F 41.8 °F 44.1 °F 97% 30.09 in 0.5 mi ESE 5.8 mph - N/A Fog Fog
5:28 AM 46.4 °F 42.9 °F 44.6 °F 93% 30.08 in 1.2 mi East 6.9 mph - N/A   Overcast
5:56 AM 46.0 °F 42.5 °F 44.1 °F 93% 30.08 in 1.8 mi East 6.9 mph - N/A   Overcast
6:16 AM 46.4 °F 42.9 °F 44.6 °F 93% 30.09 in 2.0 mi East 6.9 mph - N/A   Overcast
6:56 AM 46.0 °F 43.1 °F 43.0 °F 89% 30.09 in 2.5 mi East 5.8 mph - N/A   Overcast
7:03 AM 46.4 °F 45.2 °F 42.8 °F 87% 30.07 in 2.5 mi NE 3.5 mph - N/A   Overcast
7:56 AM 46.0 °F 42.5 °F 43.0 °F 89% 30.10 in 2.5 mi ENE 6.9 mph - N/A   Overcast
8:03 AM 46.4 °F 42.9 °F 42.8 °F 87% 30.09 in 3.0 mi ENE 6.9 mph - N/A   Overcast
8:20 AM 46.4 °F 42.9 °F 44.6 °F 93% 30.09 in 2.5 mi East 6.9 mph - N/A   Overcast
8:35 AM 46.4 °F 42.9 °F 44.6 °F 93% 30.08 in 3.0 mi ENE 6.9 mph - N/A   Overcast
8:49 AM 46.4 °F 42.4 °F 44.6 °F 93% 30.08 in 2.5 mi East 8.1 mph - N/A   Overcast
8:56 AM 46.9 °F - 43.0 °F 86% 30.10 in 3.0 mi ENE 8.1 mph - N/A   Overcast
9:56 AM 46.9 °F - 44.1 °F 90% 30.10 in 3.0 mi ENE 8.1 mph - N/A   Overcast
10:13 AM 46.4 °F 41.9 °F 44.6 °F 93% 30.09 in 2.5 mi East 9.2 mph - N/A   Overcast
10:56 AM 46.9 °F - 44.1 °F 90% 30.09 in 2.5 mi East 5.8 mph - N/A   Overcast
11:23 AM 48.2 °F - 44.6 °F 87% 30.06 in 3.0 mi East 8.1 mph - N/A   Overcast
11:56 AM 48.9 °F - 44.1 °F 83% 30.08 in 3.0 mi ENE 8.1 mph - N/A   Haze
12:56 PM 50.0 °F - 44.1 °F 80% 30.06 in 4.0 mi NE 6.9 mph - N/A   Haze
1:08 PM 50.0 °F - 44.6 °F 82% 30.05 in 5.0 mi East 8.1 mph - N/A   Haze
1:56 PM 51.1 °F - 45.0 °F 80% 30.04 in 5.0 mi ENE 8.1 mph - N/A   Haze
2:56 PM 51.1 °F - 45.0 °F 80% 30.03 in 6.0 mi ENE 4.6 mph - N/A   Haze
3:56 PM 53.1 °F - 45.0 °F 74% 30.01 in 8.0 mi East 8.1 mph - N/A   Overcast
4:56 PM 53.1 °F - 46.0 °F 77% 30.00 in 7.0 mi NE 5.8 mph - N/A   Overcast
5:56 PM 52.0 °F - 46.0 °F 80% 29.99 in 5.0 mi East 4.6 mph - N/A   Haze
6:52 PM 51.8 °F - 46.4 °F 82% 29.99 in 5.0 mi Calm Calm - N/A   Haze
6:56 PM 53.1 °F - 46.0 °F 77% 30.00 in 5.0 mi Calm Calm - N/A   Haze
7:56 PM 52.0 °F - 46.0 °F 80% 30.01 in 5.0 mi East 4.6 mph - N/A   Haze
8:56 PM 51.1 °F - 46.0 °F 83% 30.02 in 6.0 mi East 4.6 mph - N/A   Haze
9:26 PM 50.0 °F - 46.4 °F 87% 30.01 in 4.0 mi ESE 5.8 mph - N/A   Overcast
9:48 PM 50.0 °F - 46.4 °F 87% 30.01 in 4.0 mi ESE 4.6 mph - N/A   Mostly Cloudy
10:41 PM 46.4 °F 45.2 °F 44.6 °F 93% 30.01 in 3.0 mi SE 3.5 mph - N/A   Scattered Clouds
10:49 PM 46.4 °F 45.2 °F 44.6 °F 93% 30.01 in 3.0 mi South 3.5 mph - N/A   Scattered Clouds
11:42 PM 46.4 °F - 44.6 °F 93% 30.00 in 2.5 mi Calm Calm - N/A   Mostly Cloudy
11:56 PM 46.9 °F - 45.0 °F 93% 30.01 in 2.5 mi SSE 3.5 mph - N/A   Mostly Cloudy